This is the latest recevied weather packets stored in our database for station/object MARKET. If no packets are shown the sender has not sent any weather packets the latest 10 day(s).
| Time | Temp. | Humidity | Pressure | Rain* | Wind** | Luminosity | Snow |
|---|---|---|---|---|---|---|---|
| 1777819634 | 4.44° C | 82% | 1010.7 hPa | - | - | - | - |
| 1777818433 | 3.89° C | 83% | 1011.3 hPa | - | - | - | - |
| 1777817234 | 3.89° C | 82% | 1011.2 hPa | - | - | - | - |
| 1777816034 | 4.44° C | 82% | 1011.4 hPa | - | - | - | - |
| 1777814833 | 4.44° C | 82% | 1011.4 hPa | - | - | - | - |
| 1777813633 | 3.89° C | 81% | 1011.4 hPa | - | - | - | - |
| 1777812433 | 4.44° C | 79% | 1011.6 hPa | - | - | - | - |
| 1777811234 | 4.44° C | 78% | 1011.7 hPa | - | - | - | - |
| 1777810033 | 4.44° C | 78% | 1011.8 hPa | - | - | - | - |
| 1777808834 | 4.44° C | 77% | 1011.6 hPa | - | - | - | - |
| 1777807633 | 4.44° C | 81% | 1011.5 hPa | - | - | - | - |
| 1777806433 | 4.44° C | 81% | 1011.6 hPa | - | - | - | - |
| 1777805239 | 4.44° C | 81% | 1011.5 hPa | - | - | - | - |
| 1777804034 | 4.44° C | 85% | 1011.5 hPa | - | - | - | - |
| 1777803036 | 4.44° C | 84% | 1011.4 hPa | - | - | - | - |
| 1777801633 | 4.44° C | 82% | 1011.3 hPa | - | - | - | - |
| 1777800433 | 4.44° C | 84% | 1010.9 hPa | - | - | - | - |
| 1777799233 | 4.44° C | 84% | 1011.3 hPa | - | - | - | - |
| 1777798033 | 4.44° C | 85% | 1011.2 hPa | - | - | - | - |
| 1777796833 | 4.44° C | 88% | 1011.1 hPa | - | - | - | - |
| 1777795633 | 4.44° C | 88% | 1011 hPa | - | - | - | - |
| 1777794432 | 4.44° C | 87% | 1010.9 hPa | - | - | - | - |
| 1777793232 | 4.44° C | 86% | 1010.9 hPa | - | - | - | - |
| 1777792032 | 5° C | 84% | 1010.7 hPa | - | - | - | - |
| 1777790832 | 4.44° C | 87% | 1010.7 hPa | - | - | - | - |
* Rain since midnight (hover to see other rain measurements)
** Current wind speed in m/s (hover to see current wind gust speed)